Weather History for KCAG - August, 2014

Change the Weather History Date:

Wednesday, August 13, 2014

  Actual Average Record
Temperature  
Mean Temperature 71 °F 66 °F  
Max Temperature 88 °F 85 °F 93 °F (2003)
Min Temperature 53 °F 47 °F 37 °F (2004)
Degree Days  
Heating Degree Days 0 1  
Month to date heating degree days 15 11  
Since 1 June heating degree days 245 211  
Since 1 July heating degree days 59 36  
Cooling Degree Days 6 2  
Month to date cooling degree days 15 35  
Year to date cooling degree days 56 124  
Since 1 June cooling degree days 56 124  
Growing Degree Days 22 (Base 50)    
Moisture  
Dew Point 49 °F    
Average Humidity 55    
Maximum Humidity 87    
Minimum Humidity 23    
Precipitation  
Precipitation 0.27 in 0.05 in 0.48 in (2001)
Month to date precipitation 0.72 0.53  
Year to date precipitation 6.91 9.20  
Sea Level Pressure  
Sea Level Pressure 30.19 in    
Wind  
Wind Speed 6 mph (ENE)    
Max Wind Speed 26 mph    
Max Gust Speed 32 mph    
Visibility 10 miles    
Events Rain    
T = Trace of Precipitation, MM = Missing Value Source: NWS Daily Summary

Daily Weather History Graph

Daily Weather History Graph

Search for Another Location

Airport or City:

Trip Planner

Search our weather history database for the weather conditions in past years. The results will help you decide how hot, cold, wet, or windy it might be!

Date:

Astronomy

Aug. 13, 2014 Rise Set
Actual Time 6:18 AM MDT 8:10 PM MDT
Civil Twilight 5:49 AM MDT 8:39 PM MDT
Nautical Twilight 5:13 AM MDT 9:15 PM MDT
Astronomical Twilight 4:35 AM MDT 9:53 PM MDT
Moon 9:56 PM MDT (8/13) 9:51 AM MDT (8/13)
Length of Visible Light 14h 50m
Length of Day
13h 51m
Waning Gibbous, 87% of the Moon is Illuminated
Aug 13
Waning Gibbous
Aug 17
Last Quarter
Aug 25
New
Sep 2
First Quarter
Sep 8
Full

Hourly Weather History & Observations

Time (MDT) Temp. Dew Point Humidity Pressure Visibility Wind Dir Wind Speed Gust Speed Precip Events Conditions
12:53 AM - - N/A% 30.29 in 10.0 mi East 3.5 mph - N/A   Clear
1:53 AM - - N/A% 30.28 in 10.0 mi Calm Calm - N/A   Clear
2:53 AM - - N/A% 30.28 in 10.0 mi Calm Calm - N/A   Clear
3:53 AM - - N/A% 30.29 in 10.0 mi East 3.5 mph - N/A   Clear
4:53 AM - - N/A% 30.29 in 10.0 mi Calm Calm - N/A   Overcast
6:53 AM - - N/A% 30.30 in 10.0 mi Calm Calm - N/A   Scattered Clouds
7:53 AM 60.1 °F 46.9 °F 62% 30.30 in 10.0 mi Calm Calm - N/A   Scattered Clouds
8:53 AM 66.2 °F 46.4 °F 49% 30.31 in 10.0 mi Calm Calm - N/A   Clear
9:53 AM 72.0 °F 48.0 °F 43% 30.29 in 10.0 mi North - - N/A   Unknown
10:53 AM 77.0 °F 46.9 °F 34% 30.28 in 10.0 mi Calm Calm - N/A   Clear
11:53 AM 80.1 °F 46.0 °F 30% 30.26 in 10.0 mi WNW 6.9 mph - N/A   Clear
12:53 PM 84.9 °F 45.0 °F 25% 30.23 in 10.0 mi NW 8.1 mph - N/A   Clear
1:53 PM 86.0 °F 44.6 °F 23% 30.21 in 10.0 mi Calm Calm - N/A   Partly Cloudy
2:53 PM 84.0 °F 46.0 °F 26% 30.19 in 10.0 mi West 13.8 mph 18.4 mph N/A   Partly Cloudy
3:53 PM 82.0 °F 48.0 °F 30% 30.20 in 10.0 mi West 9.2 mph - N/A   Scattered Clouds
4:45 PM 75.0 °F 51.1 °F 43% 30.20 in 10.0 mi ESE 13.8 mph 24.2 mph N/A   Mostly Cloudy
4:53 PM 78.1 °F 51.1 °F 39% 30.20 in 10.0 mi ESE 17.3 mph 26.5 mph N/A   Scattered Clouds
5:53 PM 75.9 °F 50.0 °F 40% 30.18 in 10.0 mi ENE 13.8 mph - N/A   Clear
6:53 PM 75.0 °F 48.9 °F 40% 30.16 in 10.0 mi East 6.9 mph - N/A   Clear
7:53 PM 73.0 °F 52.0 °F 48% 29.96 in 10.0 mi ENE 6.9 mph - N/A   Scattered Clouds
8:53 PM 66.9 °F 53.1 °F 61% 29.99 in 10.0 mi West 10.4 mph - N/A   Unknown
10:53 PM 60.1 °F 55.9 °F 86% 30.06 in 5.0 mi Calm Calm - 0.14 in Rain Rain
11:53 PM 59.0 °F 55.0 °F 87% 30.04 in 10.0 mi East 9.2 mph - 0.07 in Rain Light Rain